RADARSAT-2

Last updated on Sun Aug 31 2025 00:02:30 GMT+0000 (Coordinated Universal Time)

1 32382U 07061A 25242.30886932 .00000110 00000+0 59572-4 0 9999 2 32382 98.5807 248.3873 0001243 90.1366 269.9959 14.29983280924388
UTC large
Height (km)
Speed (km/s)
/
Latitude / Longitude
Inclination (degrees)
Orbital Period (minutes)
Azimuth
Elevation
Range (km)
Doppler Factor

Next 0 passes for location: London (51.5072 / 0.1276)

Sorry there are no passes over London.